Regional Weather Roundup
Issued by NWS Boston, MA

Current Version | Previous Version | Text Only | Print | Product List | Glossary Off
Versions: 1 2 3 4 5 6 7 8 9 10 11 12 13 14 15 16 17 18 19 20 21 22 23 24 25 26 27 28 29 30 31 32 33 34 35 36 37 38 39 40 41 42 43 44 45 46 47 48 49 50
000 ASUS41 KBOX 170010 RWRBOX REGIONAL WEATHER ROUNDUP NATIONAL WEATHER SERVICE BOSTON/NORTON MA 700 PM EST FRI NOV 16 2018 NOTE: "FAIR" INDICATES FEW OR NO CLOUDS BELOW 12,000 FEET WITH NO SIGNIFICANT WEATHER AND/OR OBSTRUCTIONS TO VISIBILITY. MAZALL-170100- EASTERN MASSACHUSETTS CITY SKY/WX TMP DP RH WIND PRES REMARKS BOSTON FAIR 38 30 73 W10 29.70R WCI 31 6HR MIN TEMP: 35; 6HR MAX TEMP: 38; 6HR PCP: TRACE; BEVERLY FAIR 34 27 75 W8 29.68R WCI 27 LAWRENCE FAIR 35 27 72 SW6 29.69S WCI 30 BEDFORD FAIR 33 27 78 SW7 29.69R WCI 27 BLUE HILL N/A 32 29 88 W14 29.68R WCI 22 NORWOOD FAIR 36 30 79 CALM 29.71R MARSHFIELD FAIR 34 32 93 VRB7 29.71R WCI 28 PLYMOUTH FAIR 39 31 72 W12 29.72R WCI 32 TAUNTON FAIR 35 30 82 SW3 29.73R NEW BEDFORD FAIR 38 33 82 W15G21 29.73R WCI 29 $$ MAZALL-170100- CAPE COD AND THE ISLANDS CITY SKY/WX TMP DP RH WIND PRES REMARKS FALMOUTH FAIR 36 32 87 W16 29.73R WCI 26 HYANNIS FAIR 36 32 85 W7 29.70R WCI 30 CHATHAM FAIR 35 32 88 VRB7 29.72R WCI 29 PROVINCETOWN FAIR 39 32 76 W21G28 29.70R WCI 29 NANTUCKET FAIR 41 32 70 W20G28 29.73R WCI 32 MARTHAS VNYRD FAIR 41 32 70 W17G29 29.74R $$ MAZALL-170100- CENTRAL AND WESTERN MASSACHUSETTS CITY SKY/WX TMP DP RH WIND PRES REMARKS WORCESTER MOCLDY 33 28 81 W16G22 29.68R WCI 23 6HR MIN TEMP: 31; 6HR MAX TEMP: 33; 6HR PCP: TRACE; FITCHBURG FAIR 35 28 75 W13 29.69R WCI 26 ORANGE CLOUDY 38 28 67 W3 29.72R SPRINGFIELD MOCLDY 37 29 73 S3 29.73R WESTFIELD FAIR 35 29 78 S9 29.74R WCI 28 NORTH ADAMS CLOUDY 37 30 75 W10 29.74R WCI 30 PITTSFIELD CLOUDY 35 28 75 W9 29.72R WCI 28 $$ RIZALL-170100- RHODE ISLAND CITY SKY/WX TMP DP RH WIND PRES REMARKS PROVIDENCE FAIR 38 30 73 W9 29.76R WCI 31 6HR MIN TEMP: 35; 6HR MAX TEMP: 39; NEWPORT FAIR 39 31 72 W7 29.75R BLOCK ISLAND CLOUDY N/A N/A N/A W22G28 29.79R SMITHFIELD FAIR 36 29 75 W15G21 29.73R WCI 27 WESTERLY FAIR 41 33 73 W9 29.79R $$ CTZALL-170100- CONNECTICUT CITY SKY/WX TMP DP RH WIND PRES REMARKS BRADLEY INTL FAIR 36 30 79 SW5 29.77R 6HR MIN TEMP: 36; 6HR MAX TEMP: 42; HARTFORD CLOUDY 39 32 76 SW3 29.78R BRIDGEPORT CLOUDY 44 32 62 W14 29.81R DANBURY CLOUDY 39 30 70 W12 29.81R WCI 32 GROTON FAIR 41 33 73 W10 29.79R NEW HAVEN CLOUDY 44 33 65 W9G17 29.81R CHESTER CLOUDY 39 32 75 W7 29.78R MERIDEN CLOUDY 40 30 67 SW5 29.79R WILLIMANTIC MOCLDY 37 32 82 SW5 29.77R OXFORD MOCLDY 38 30 73 W8G16 29.78R $$ MEZ002-015-021-024-NHZ003-005-008-011-012-014-VTZ005-008-170100- NORTHERN NEW ENGLAND CITY SKY/WX TMP DP RH WIND PRES REMARKS PORTLAND ME CLOUDY 31 28 89 CALM 29.64S 6HR MIN TEMP: 29; 6HR MAX TEMP: 32; 6HR PCP: TRACE; BANGOR ME CLOUDY 26 24 92 W8 29.58R WCI 18 CONCORD NH FAIR 29 27 92 W3 29.66S MANCHESTER NH FAIR 34 29 82 SW3 29.66R NASHUA NH MOCLDY 31 30 96 SW3 29.69R PORTSMOUTH NH MOCLDY 33 29 82 W7 29.65R WCI 27 JAFFREY NH FAIR 32 28 85 VRB7 29.66R WCI 26 KEENE NH MOCLDY 29 28 96 CALM 29.70R BURLINGTON VT LGT SNOW 30 28 92 SE3 29.67S VSB 1 MT. WASHINGTON SNOW 10 10 100 W62 N/A VSB 0 WCI -18 $$ NYZ052-076-170100- EASTERN NEW YORK CITY SKY/WX TMP DP RH WIND PRES REMARKS ALBANY CLOUDY 37 31 78 SE3 29.77R 6HR MIN TEMP: 34; 6HR MAX TEMP: 38; 6HR PCP: TRACE; NEW YORK CITY FAIR 43 28 55 W17G28 29.86R 6HR MIN TEMP: 43; 6HR MAX TEMP: 46; $$ ANZALL-170100- MARINE OBSERVATIONS STATION/POSITION TIME TEMP WIND PRES VSBY WAVE AIR SEA DIR/SP/G HT/PER (UTC) (F) (DEG/KT/KT) (MB) (MI) (FT/S) BOSTON BUOY 2350 40 52 270/ 17/ 23 1004.7R 8/11 BUZZARDS BAY 2300 42 270/ 27/ 32 1007.1R NANTUCKET SOUND 2350 43 49 270/ 23/ 29 1006.2R 3/ 4 MASS BAY-STELLWA 2304 39 50 290/ 17/ 23 1002.9R 1 7/8 13/11 ISLE OF SHOALS 2300 36 280/ 14/ 17 1003.1R S OF BLOCK IS 2343 55 N/A 11/11 $$ ......................KEY......................... SKY/WX - SKY CONDITION/PRESENT WEATHER TMP - TEMPERATURE IN FAHRENHEIT DWPT - DEWPOINT IN FAHRENHEIT RH - RELATIVE HUMIDITY IN PERCENT WIND - DIRECTION AND SPEED IN MPH PRES - MEAN SEA LEVEL PRESSURE IN INCHES OF HG WCI - WIND CHILL INDEX VSB - VISIBILITY IN MILES HX - HEAT INDEX TC - TEMPERATURE IN CELSIUS VRB - VARIABLE WIND DIRECTION N/A - NOT AVAILABLE

USA.gov is the U.S. government's official web portal to all federal, state and local government web resources and services.